Location: Arborea
(39.7744°N, 8.5819°E)
Time: 22:14:17
(UTC+00:00)

Daily predictions for brighter satellites

Satellite Brightness Start Highest point End
(mag) Time Altitude Azimuth Time Altitude Azimuth Time Altitude Azimuth
Centaur D AC-29 3.4 19:03:12 10° SW 19:07:25 28° SSE 19:19:40 10° E
Cosmos 1697 Rocket 2.8 19:19:03 10° NNW 19:24:41 84° WSW 19:30:17 10° SSE
Cosmos 2251 Rocket 3.5 19:22:11 10° S 19:27:22 66° ESE 19:32:39 10° NNE
COSMOS 2406 3.5 19:25:01 10° S 19:30:33 50° ESE 19:36:05 10° NNE
Cosmos 1975 2.8 19:27:14 10° N 19:31:08 82° W 19:34:59 10° S
Cosmos 1842 4.1 19:30:08 10° SSE 19:33:15 27° E 19:36:23 10° NNE
CSL-04 Rocket 3.7 19:28:34 10° SSE 19:33:50 83° WSW 19:39:11 10° NNW
Meteor 1-18 Rocket 4.5 19:31:23 10° S 19:37:17 84° W 19:43:08 10° N
Cosmos 1328 Rocket 3.5 19:33:03 10° S 19:37:19 87° W 19:41:38 10° N
Cosmos 1980 Rocket 2.4 19:35:51 10° NNW 19:41:31 63° ENE 19:47:06 10° SE
Cosmos 407 Rocket 3.6 19:37:00 10° SSW 19:42:14 81° WNW 19:47:27 10° NNE
CZ-4C R/B 3.5 19:44:43 10° NNE 19:48:48 55° E 19:52:49 10° S
MOS 1-B Rocket 4.3 19:42:30 10° S 19:48:56 73° WSW 19:54:41 10° NNW
Okean-O 2.6 19:45:39 10° SSE 19:49:59 68° ENE 19:54:23 10° N
Genesis I 3.7 19:47:36 10° SW 19:51:01 57° NW 19:54:30 10° NNE
Cosmos 1092 Rocket 4.2 19:47:09 10° S 19:53:28 78° W 19:59:51 10° N
Cosmos 1954 Rocket 4.2 19:52:38 10° S 19:57:46 54° ESE 20:02:54 10° NNE
Cosmos 540 Rocket 4.2 19:53:05 10° N 19:57:54 38° ENE 20:01:44 15° SE
USA 245 4.4 19:56:51 14° ESE 19:58:47 24° ENE 20:01:54 10° NNE
Cosmos 1400 Rocket 4.4 20:00:07 15° ESE 20:01:34 18° E 20:04:13 10° NE
Terra 2.8 19:59:05 14° SE 20:02:26 32° ENE 20:06:36 10° N
Tiangong -1.9 19:59:22 10° WNW 20:02:31 68° N 20:05:19 13° E
Cosmos 1707 2.7 20:02:04 11° S 20:05:29 54° E 20:09:01 10° NNE
Cosmos 1515 Rocket 3.5 20:02:00 10° S 20:06:18 87° E 20:10:38 10° N
Cosmos 676 Rocket 4.2 20:01:58 10° S 20:07:07 53° ESE 20:12:17 10° NNE
SL-4 R/B 4.3 20:05:01 10° WNW 20:08:09 24° NNW 20:11:27 10° NE
Cosmos 1190 Rocket 4.1 20:05:42 10° SSW 20:10:59 84° WNW 20:16:20 10° NNE
Cosmos 1633 Rocket 4.1 20:07:57 10° NNW 20:12:08 44° W 20:16:16 10° SSW
Okean O Rocket 3.2 20:09:52 10° SSW 20:13:50 33° W 20:17:49 10° NNW
SeaSat 1 2.6 20:12:15 18° SE 20:15:50 60° ENE 20:20:41 10° NNW
EXPRESS MD2 4.2 20:16:18 10° W 20:19:24 34° NNW 20:21:37 10° NE
Cosmos 1766 4.1 20:16:02 10° NNW 20:19:39 46° W 20:23:14 10° SSW
USA 234 3.7 20:17:25 10° NE 20:23:54 67° NW 20:30:22 10° WSW
Cosmos 1470 Rocket 4.2 20:19:55 10° NNW 20:24:10 54° W 20:28:15 11° S
Cosmos 1869 Rocket 4.1 20:22:45 10° N 20:27:00 43° ENE 20:29:11 25° SE
IRS-1A Rocket 4.2 20:23:22 17° SSE 20:27:45 87° ENE 20:33:16 10° NNW
MOS 1 Rocket 4.0 20:26:39 21° SE 20:30:01 51° ENE 20:35:12 10° N
Cosmos 2360 Rocket 3.9 20:28:46 10° N 20:32:54 20° NE 20:36:22 12° E
ERS-1 Rocket 2.9 20:33:11 21° SSE 20:36:33 86° ENE 20:41:36 10° NNW
Cosmos 2333 Rocket 4.0 20:33:26 10° N 20:37:40 21° NE 20:41:09 13° E
Cosmos 841 Rocket 4.3 20:33:15 10° N 20:38:09 38° ENE 20:40:43 24° ESE
Atlas Centaur 2 3.4 20:30:41 10° WSW 20:38:23 44° S 20:43:36 20° ESE
Resurs 01 Rocket 4.3 20:36:26 10° WSW 20:38:44 14° W 20:41:03 10° WNW
Cosmos 1441 Rocket 2.9 20:36:53 10° N 20:40:29 78° E 20:41:54 35° SSE
In-Cosmos 22 4.1 20:35:32 13° S 20:40:38 80° E 20:46:14 10° NNE
SL-16 R/B 2.8 20:35:31 10° N 20:40:57 44° ENE 20:43:56 24° ESE
Spot 2 Rocket 3.5 20:38:13 25° SSE 20:41:09 70° ENE 20:46:13 10° N
Cosmos 2082 Rocket 3.9 20:36:28 10° SW 20:41:39 35° WNW 20:46:51 10° N
Cosmos 1763 Rocket 3.9 20:37:06 10° NNW 20:42:16 60° WSW 20:45:43 20° S
Cosmos 2369 4.2 20:36:55 10° NNW 20:42:31 55° WSW 20:46:32 19° S
SL-14 R/B 4.0 20:42:15 31° ESE 20:42:49 32° E 20:46:13 10° NNE
RESURS DK-1 4.0 20:40:50 10° N 20:44:06 23° ENE 20:45:34 19° E
Timation 1 Rocket 4.4 20:38:47 11° S 20:44:19 59° ESE 20:50:10 10° NNE
SPOT 5 3.6 20:42:41 15° SSW 20:45:58 42° W 20:50:06 10° NNW
Cosmos 1933 Rocket 4.0 20:44:08 10° NNW 20:48:30 59° W 20:51:18 21° SSW
Cosmos 1470 3.5 20:45:30 10° NNW 20:49:02 44° W 20:51:09 21° SSW
Cosmos 1417 Rocket 4.4 20:43:20 10° N 20:49:33 84° E 20:53:26 24° S
Cosmos 1300 3.6 20:49:27 10° NNE 20:52:37 29° ENE 20:52:53 29° E
Cosmos 1908 3.6 20:52:43 10° NNW 20:56:14 54° W 20:57:42 31° SSW
Cosmos 1862 Rocket 4.3 20:55:44 33° ESE 20:56:27 35° E 21:00:27 10° NNE
Cosmos 1346 Rocket 3.7 20:57:44 10° NNE 21:01:12 31° ENE 21:01:35 30° E
ATLAS 2AS CENTAUR R/B 3.8 20:57:26 10° NNW 21:03:32 34° NE 21:07:52 17° E
Meteor 1-22 Rocket 4.2 20:59:52 10° N 21:05:32 89° E 21:08:26 31° S
Ariane Rocket 3.1 21:03:07 30° S 21:05:40 73° WSW 21:10:47 10° NNW
Meteor 1-4 Rocket 4.5 21:09:49 14° NE 21:09:49 14° NE 21:10:34 10° NE
Cosmos 1356 Rocket 3.4 21:09:22 50° SSE 21:10:15 66° E 21:14:26 10° NNE
Cosmos 1758 3.3 21:08:32 10° N 21:12:24 62° E 21:12:54 56° ESE
SPOT 3 Rocket 3.7 21:12:14 32° S 21:14:37 67° WSW 21:19:46 10° NNW
Cosmos 1850 Rocket 3.9 21:13:25 28° SSW 21:16:16 85° ESE 21:21:30 10° NNE
Cosmos 1707 Rocket 3.5 21:16:09 48° S 21:17:19 76° E 21:21:46 10° N
SL-27 R/B 3.7 21:19:33 24° NNE 21:19:33 24° NNE 21:20:52 10° NNE
ARIANE 5 R/B 4.1 21:17:31 21° E 21:18:11 22° ENE 21:21:33 10° NNE
Meteor 1-21 4.2 21:21:07 36° S 21:23:34 77° E 21:29:23 10° NNE
Cosmos 1980 Rocket 4.4 21:21:20 10° WNW 21:24:53 17° W 21:28:25 10° SW
S3M 4.4 21:19:19 10° NNW 21:25:35 61° W 21:29:06 27° SSW
Cosmos 2322 Rocket 2.3 21:19:57 10° NNW 21:25:36 64° ENE 21:27:28 41° SE
Spot 1 4.5 21:21:48 10° N 21:26:17 68° WNW 21:28:33 30° SSW
Cosmos 1655 Rocket 4.1 21:22:56 24° SSW 21:26:59 75° W 21:33:24 10° N
SJ 16-02 1.5 21:28:53 50° E 21:28:53 50° E 21:32:57 10° NNE
Landsat 5 4.0 21:29:44 10° N 21:33:39 55° WNW 21:35:02 36° SW
Cosmos 2278 4.2 21:28:52 10° NNW 21:34:23 51° WSW 21:36:25 35° SSW
Cosmos 1741 Rocket 4.2 21:31:50 26° SSW 21:34:49 70° WNW 21:40:07 10° NNE
USA 281 3.7 21:32:45 30° ESE 21:35:37 48° ENE 21:41:53 10° NNW
MetOp-A 4.0 21:37:25 48° S 21:38:51 76° WSW 21:44:08 10° NNW
Tiangong 0.1 21:36:16 10° W 21:37:28 20° W 21:37:28 20° W
Okean 3 3.2 21:39:26 79° S 21:39:41 89° ESE 21:43:52 10° N
Terra 3.5 21:37:47 18° SW 21:40:01 25° W 21:43:53 10° NW
Cosmos 968 Rocket 3.4 21:41:01 41° SSW 21:42:51 81° WNW 21:48:02 10° NNE
Cosmos 1733 Rocket 3.0 21:39:18 10° NNW 21:43:42 73° W 21:44:16 63° SSW
GP-B 3.9 21:40:56 10° NNE 21:44:46 36° E 21:44:46 36° E
Cosmos 2228 Rocket 4.1 21:44:42 30° SW 21:46:28 44° WNW 21:50:50 10° N
Cosmos 1814 Rocket 4.3 21:43:46 10° N 21:48:59 55° ENE 21:50:00 47° ESE
Cosmos 1315 Rocket 3.1 21:51:04 58° NE 21:51:04 58° NE 21:54:30 10° NNE
TRAILBLAZER 4.4 21:47:24 10° NW 21:52:00 79° WSW 21:52:15 76° SSW
ATLAS CENTAUR R/B 2.1 21:52:14 36° W 21:52:49 40° NW 21:56:12 10° NNE
Meteor 2-20 Rocket 4.4 21:46:56 10° N 21:53:14 74° E 21:54:48 51° SSE
SeaSat 1 4.4 21:51:57 15° SW 21:53:35 17° WSW 21:56:43 10° WNW
Nadezhda 2 Rocket 4.5 21:51:38 47° S 21:53:40 79° E 22:00:07 10° N
Cosmos 2219 Rocket 2.9 21:48:52 10° N 21:54:17 43° ENE 21:55:47 36° E
Cosmos 1244 Rocket 4.4 21:52:53 47° S 21:54:50 84° E 22:01:09 10° N
Cosmos 1908 Rocket 4.2 21:50:54 10° N 21:54:53 43° ENE 21:54:53 43° ENE
H-2A R/B 3.6 21:59:30 34° ENE 21:59:30 34° ENE 22:03:22 10° N
Cosmos 1953 2.9 21:57:44 10° N 22:00:51 48° NE 22:00:51 48° NE
Cosmos 1455 3.2 22:01:17 10° N 22:03:41 37° NNE 22:03:41 37° NNE
Okean 1-7 3.0 22:04:58 79° W 22:04:58 79° W 22:09:18 10° N
CZ-4C R/B 3.9 22:11:44 14° ENE 22:11:44 14° ENE 22:12:54 10° ENE
BREEZE-M DEB (TANK) 3.5 22:07:28 10° NW 22:09:09 44° NNW 22:09:09 44° NNW
CZ-2C R/B 3.7 22:06:56 10° N 22:11:20 69° WNW 22:11:37 67° WSW
ALOS 2 4.0 22:11:52 27° ENE 22:11:56 27° ENE 22:15:39 10° NNE
Cosmos 2360 Rocket 2.3 22:11:44 10° NNW 22:17:20 62° WSW 22:18:06 56° SSW
RESURS DK-1 3.9 22:18:17 10° NW 22:21:10 27° W 22:21:10 27° W
Cosmos 2333 Rocket 2.3 22:16:43 10° NNW 22:22:24 63° WSW 22:23:08 57° SW
SL-16 R/B 3.6 22:20:13 10° NW 22:24:43 25° WSW 22:25:47 23° WSW
H-2A R/B 4.3 22:22:19 10° NE 22:23:29 14° ENE 22:23:29 14° ENE
Atlas Centaur 2 3.7 22:19:45 10° WSW 22:25:49 34° SSW 22:25:49 34° SSW
Cosmos 1703 Rocket 3.9 22:32:44 61° WNW 22:32:44 61° WNW 22:37:02 10° N
Cosmos 2242 Rocket 4.3 22:36:20 45° ENE 22:36:20 45° ENE 22:40:02 10° NNE
DNEPR-1 R/B 4.0 22:32:54 10° NNW 22:39:21 81° NE 22:39:56 71° ESE
Meteor 1-24 Rocket 4.5 22:39:51 39° E 22:40:04 39° E 22:45:21 10° NNE
Cosmos 839 Rocket 3.9 22:40:19 10° NW 22:46:56 71° WSW 22:47:42 63° SSW
BlueWalker 3 4.0 22:50:03 21° NE 22:50:03 21° NE 22:51:23 10° NE
Cosmos 2322 3.7 22:43:13 10° NNW 22:48:54 70° ENE 22:49:30 64° ESE
Cosmos 2237 Rocket 4.0 22:45:22 10° N 22:49:54 24° NE 22:52:21 18° E
Cosmos 2227 Rocket 3.9 22:53:35 19° E 22:53:35 19° E 22:56:50 10° NE
ARIANE 5 R/B 4.0 22:54:59 29° W 22:54:59 29° W 22:58:14 10° NW
ATLAS 2AS CENTAUR R/B 2.8 22:48:10 10° NW 22:54:39 51° WSW 22:55:16 50° SW
SL-24 R/B - RUBIN 2 4.2 22:54:16 10° NW 23:00:51 82° WSW 23:01:28 73° S
Meteor 2-5 Rocket 3.8 23:03:32 63° ESE 23:03:54 64° E 23:09:44 10° NNE
Cosmos 1745 Rocket 4.4 23:05:11 46° WSW 23:06:36 55° W 23:12:51 10° N
SJ 16-02 3.8 23:05:35 12° W 23:07:25 14° WNW 23:09:46 10° NNW
Cosmos 2322 Rocket 4.1 23:05:32 10° WNW 23:09:00 17° W 23:09:15 17° WSW
COSMOS 2455 2.7 23:08:59 76° S 23:09:29 84° ESE 23:15:33 10° NNE
Cosmos 1570 Rocket 4.1 23:04:10 10° NNW 23:09:22 69° W 23:09:22 69° W
PSLV R/B 4.2 23:05:43 10° NNE 23:08:58 52° NNE 23:08:58 52° NNE
Cosmos 2297 Rocket 2.3 23:13:10 58° E 23:13:10 58° E 23:18:31 10° NNE
USA 281 4.2 23:19:37 30° WSW 23:20:13 31° WSW 23:25:57 10° NW
Cosmos 2181 Rocket 4.2 23:15:09 10° N 23:21:16 58° E 23:22:13 52° ESE
SL-4 R/B 4.3 23:24:33 10° NW 23:27:56 24° NNE 23:31:27 10° ENE
COSMOS 2428 2.6 23:22:32 10° NNW 23:28:12 70° WSW 23:28:13 70° WSW
GEOS 3 Rocket 3.5 23:26:04 10° NNE 23:31:13 78° NW 23:31:28 76° W
Cosmos 2074 Rocket 4.2 23:33:38 52° ESE 23:34:25 56° E 23:40:28 10° NNE
Cosmos 1892 4.4 23:38:13 27° NNE 23:38:13 27° NNE 23:40:02 10° NNE
CZ-3 Stage 3 4.1 23:19:11 10° W 23:37:06 36° SW 23:37:06 36° SW
Cosmos 2219 Rocket 3.6 23:33:21 10° NW 23:37:28 25° W 23:37:28 25° W
Cosmos 371 Rocket 3.8 23:39:00 52° WNW 23:39:00 52° WNW 23:43:36 10° N
ALOS 2 4.4 23:49:16 23° WNW 23:49:16 23° WNW 23:51:51 10° NW
Cosmos 773 Rocket 3.9 23:44:56 10° NNW 23:49:51 79° WNW 23:49:51 79° WNW
Cosmos 2263 Rocket 3.7 23:50:27 22° ESE 23:50:37 22° E 23:54:46 10° NE
Cosmos 2151 Rocket 4.0 23:46:23 10° N 23:50:03 61° N 23:50:03 61° N
Cosmos 1503 Rocket 4.3 23:51:55 56° W 23:52:17 57° WNW 23:57:33 10° N
